Date,TemperatureHighF,TemperatureAvgF,TemperatureLowF,DewpointHighF,DewpointAvgF,DewpointLowF,HumidityHigh,HumidityAvg,HumidityLow,PressureMaxIn,PressureMinIn,WindSpeedMaxMPH,WindSpeedAvgMPH,GustSpeedMaxMPH,PrecipitationSumIn
2013-1-1,63,48,38,36,29,20,77,53,20,30.23,30.12,1,0,0,0.00
2013-1-2,69,55,37,28,21,13,61,32,12,30.17,29.99,2,0,0,0.00
2013-1-3,70,55,38,28,18,9,68,31,9,30.16,30.03,3,0,0,0.00
2013-1-4,65,51,34,28,21,14,63,36,14,30.26,30.14,7,1,0,0.00
2013-1-5,64,51,33,29,22,15,69,38,15,30.29,30.11,3,0,0,0.00
2013-1-6,65,50,36,39,30,23,69,49,23,30.11,29.92,7,1,0,0.00
2013-1-7,71,59,46,41,27,15,69,34,14,29.99,29.90,10,2,0,0.00
2013-1-8,83,64,46,36,30,21,44,30,16,30.03,29.92,7,1,0,0.00
2013-1-9,74,59,45,41,37,35,75,48,25,30.10,29.85,4,0,0,0.00
2013-1-10,63,56,46,43,33,17,76,46,27,29.95,29.73,15,3,0,0.00
2013-1-11,60,49,37,29,21,14,55,36,17,30.07,29.95,3,0,0,0.00
2013-1-12,59,49,39,30,23,11,67,39,15,30.10,29.98,9,0,0,0.00
2013-1-13,57,45,31,24,18,8,72,39,18,30.14,29.99,7,1,0,0.00
2013-1-14,54,46,35,10,2,-4,34,18,9,30.33,30.14,6,1,0,0.00
2013-1-17,77,59,41,33,25,16,68,34,10,30.23,30.08,3,0,0,0.00
2013-1-18,79,61,40,32,27,18,63,33,10,30.17,30.04,4,0,0,0.00
2013-1-19,81,63,42,32,25,16,60,29,9,30.19,30.06,0,0,0,0.00
2013-1-20,83,63,40,31,21,8,58,26,6,30.11,29.97,0,0,0,0.00
2013-1-21,83,65,41,36,19,4,55,24,5,30.07,29.96,1,0,0,0.00
2013-1-22,80,61,41,36,26,18,53,31,10,30.09,29.98,1,0,0,0.00
2013-1-23,76,64,49,44,33,23,55,34,14,30.07,29.97,0,0,0,0.00
2013-1-24,73,64,60,50,42,33,66,45,33,30.13,29.99,4,0,0,0.01
2013-1-25,63,60,58,58,56,52,93,87,76,30.12,29.91,3,0,0,0.30
2013-1-26,71,62,58,61,58,56,96,87,68,29.91,29.80,3,0,0,0.10
2013-1-27,69,60,52,57,50,33,95,72,37,29.90,29.80,6,2,0,0.00
2013-1-28,66,54,45,40,33,25,78,49,21,30.06,29.88,4,0,0,0.00
2013-1-29,67,52,38,38,31,24,82,51,20,30.17,30.00,3,0,0,0.00
2013-1-30,70,55,41,43,38,35,87,57,29,30.29,30.15,5,1,0,0.00
2013-1-31,78,62,43,44,42,38,84,51,27,30.19,30.04,3,0,0,0.00
2013-2-1,77,62,45,47,42,38,80,53,25,30.13,30.04,4,0,0,0.00
2013-2-2,78,64,52,51,43,36,76,50,23,30.16,30.04,1,0,0,0.00
2013-2-3,79,68,61,52,47,43,67,48,28,30.05,29.89,6,1,0,0.00
2013-2-4,85,68,51,46,41,33,73,44,16,29.98,29.84,1,0,0,0.00
2013-2-5,82,65,50,44,40,36,68,44,20,29.93,29.78,2,0,0,0.00
2013-2-6,82,64,49,46,42,30,81,52,15,29.97,29.79,3,0,0,0.00
2013-2-7,75,61,48,45,40,34,75,50,22,30.00,29.80,4,0,0,0.00
2013-2-8,61,54,44,40,35,28,80,50,32,29.86,29.79,15,6,0,0.02
2013-2-9,63,50,37,38,35,30,92,60,30,29.98,29.80,8,1,0,0.00
2013-2-10,66,52,38,38,34,30,89,56,27,29.98,29.87,8,1,0,0.00
2013-2-11,64,55,48,37,22,8,65,33,11,30.15,29.95,14,4,0,0.00
2013-2-12,71,55,38,31,22,13,59,33,11,30.27,30.13,2,0,0,0.00
2013-2-13,78,58,41,35,29,23,61,39,13,30.19,30.01,5,0,0,0.00
2013-2-14,81,63,45,36,31,24,64,35,12,30.12,29.99,2,0,0,0.00
2013-2-15,81,65,48,36,28,19,59,30,10,30.20,30.10,5,0,0,0.00
2013-2-16,81,67,47,36,25,16,61,25,9,30.16,29.90,0,0,0,0.00
2013-2-17,82,66,43,38,28,19,62,30,10,29.88,29.73,4,0,0,0.00
2013-2-18,77,62,45,41,35,28,72,41,17,29.94,29.77,5,0,0,0.00
2013-2-19,65,56,45,43,38,33,81,55,32,29.80,29.59,10,1,0,0.00
2013-2-20,66,54,44,42,36,30,88,55,28,29.85,29.58,4,1,0,0.13
2013-2-21,66,53,39,40,34,29,86,53,26,30.00,29.85,2,0,0,0.00
2013-2-22,74,56,41,33,28,17,68,39,12,30.11,30.00,3,0,0,0.00
2013-2-23,72,58,42,37,34,20,73,44,22,30.07,29.71,8,1,0,0.00
2013-2-25,71,58,41,30,20,14,50,26,11,30.17,29.95,6,2,0,0.00
2013-2-26,76,60,40,33,22,9,67,30,8,30.10,29.92,3,1,0,0.00
2013-2-27,75,62,42,30,19,7,55,24,8,30.24,30.11,6,2,0,0.00
2013-2-28,83,67,44,35,20,10,51,21,7,30.28,30.17,0,0,0,0.00
2013-3-1,88,72,47,39,28,20,54,24,9,30.28,30.10,5,1,0,0.00
2013-3-2,87,72,50,40,35,30,60,30,14,30.17,29.97,3,0,0,0.00
2013-3-3,85,71,58,43,36,26,58,31,12,29.96,29.75,6,0,0,0.00
2013-3-4,83,68,56,47,43,37,66,42,20,29.94,29.80,6,0,0,0.00
2013-3-5,82,67,55,47,44,41,67,47,25,29.98,29.83,5,1,0,0.00
2013-3-6,78,64,50,46,40,34,75,45,22,29.94,29.79,6,0,0,0.00
2013-3-7,68,61,51,45,42,38,71,51,35,29.85,29.75,14,1,0,0.00
2013-3-8,64,56,49,48,39,34,85,56,33,29.88,29.69,9,2,0,0.05
2013-3-9,74,58,45,44,40,36,79,54,26,30.07,29.87,5,1,0,0.00
2013-3-10,82,68,49,43,27,14,77,31,8,30.17,30.02,5,1,0,0.00
2013-3-11,87,71,48,38,29,19,53,25,8,30.10,29.90,5,1,0,0.00
2013-3-12,92,73,53,43,34,28,52,29,10,30.00,29.88,3,0,0,0.00
2013-3-13,99,77,57,44,36,27,50,28,8,30.03,29.88,1,0,0,0.00
2013-3-14,101,80,61,44,38,31,44,27,9,29.99,29.84,2,0,0,0.00
2013-3-15,96,80,63,46,42,37,51,28,14,29.89,29.71,3,0,0,0.00
2013-3-16,97,81,63,46,39,29,44,25,9,29.73,29.61,10,2,0,0.00
2013-3-17,93,76,60,48,41,23,60,35,8,29.81,29.66,3,0,0,0.00
2013-3-18,87,72,57,51,48,39,73,45,19,29.87,29.75,2,0,0,0.00
2013-3-19,91,74,59,51,47,41,70,42,18,29.91,29.81,7,2,0,0.00
2013-3-20,88,74,63,50,46,36,63,40,17,29.90,29.73,11,2,0,0.00
2013-3-21,91,74,63,51,45,29,65,40,11,29.74,29.58,7,1,0,0.00
2013-3-22,90,74,57,49,39,21,69,36,8,29.70,29.58,7,2,0,0.00
2013-3-23,85,72,57,50,26,9,65,27,6,29.91,29.71,6,1,0,0.00
2013-3-24,86,72,52,35,27,17,53,22,8,29.94,29.77,4,0,0,0.00
2013-3-25,86,73,55,37,31,24,48,25,11,29.87,29.75,4,0,0,0.00
2013-3-26,90,75,61,48,38,19,62,31,8,29.79,29.66,3,0,0,0.00
2013-3-27,87,73,58,47,40,33,59,33,17,29.82,29.72,17,1,0,0.00
2013-3-28,87,74,58,50,43,37,66,38,17,29.91,29.81,6,0,0,0.00
2013-3-29,88,74,59,50,46,41,63,39,20,29.97,29.86,5,1,0,0.00
2013-3-30,93,80,68,53,47,39,59,35,16,29.92,29.80,5,1,0,0.00
2013-3-31,87,73,60,51,44,39,61,39,20,29.90,29.81,10,2,0,0.00
2013-4-1,81,70,58,45,42,39,61,39,23,29.94,29.81,9,1,0,0.00
2013-4-2,90,73,55,48,43,34,69,40,14,29.91,29.77,9,1,0,0.00
2013-4-3,96,79,61,49,42,33,63,33,11,29.93,29.80,9,1,0,0.00
2013-4-4,94,79,64,50,44,37,57,33,14,29.89,29.77,5,0,0,0.00
2013-4-5,88,75,60,52,46,38,63,37,19,29.88,29.74,7,1,0,0.00
2013-4-6,90,74,59,53,49,41,77,46,19,29.86,29.71,6,1,0,0.00
2013-4-7,91,77,60,53,49,41,76,42,19,29.77,29.57,3,0,0,0.00
2013-4-8,73,68,62,52,41,34,66,38,26,29.62,29.44,22,7,0,0.00
2013-4-9,82,70,55,35,26,15,46,22,9,29.87,29.62,7,2,0,0.00
2013-4-10,89,76,62,33,21,4,30,15,4,30.00,29.80,5,2,0,0.00
2013-4-11,91,76,56,46,38,33,62,29,13,29.86,29.56,6,1,0,0.00
2013-4-12,91,76,60,50,44,32,66,38,16,29.70,29.59,9,1,0,0.00
2013-4-13,91,77,62,52,45,33,56,35,13,29.70,29.54,9,2,0,0.00
2013-4-14,81,70,59,49,47,45,67,45,29,29.62,29.50,13,3,0,0.00
2013-4-15,80,70,61,48,44,40,57,41,26,29.62,29.54,14,5,0,0.00
2013-4-16,74,66,55,40,34,22,53,32,19,29.82,29.59,19,5,0,0.00
2013-4-17,80,67,56,31,21,7,39,20,6,30.02,29.81,14,4,0,0.00
2013-4-18,82,68,54,31,19,7,36,18,6,30.18,30.02,4,0,0,0.00
2013-4-19,90,76,54,34,23,11,40,17,6,30.09,29.84,6,1,0,0.00
2013-4-20,97,80,56,43,34,23,57,24,7,29.85,29.73,4,0,0,0.00
2013-4-21,95,81,63,45,39,31,49,26,11,29.86,29.73,6,1,0,0.00
2013-4-22,98,81,62,48,43,35,59,30,11,29.80,29.60,4,0,0,0.00
2013-4-23,95,79,62,50,36,21,61,29,7,29.81,29.63,4,0,0,0.00
2013-4-24,92,76,64,51,43,22,60,37,8,29.78,29.63,12,2,0,0.00
2013-4-25,85,73,60,49,47,43,65,42,24,29.89,29.69,10,2,0,0.00
2013-4-26,92,77,60,51,48,42,71,40,19,30.01,29.89,3,0,0,0.00
2013-4-27,104,86,68,50,36,14,48,24,4,29.96,29.76,7,2,0,0.00
2013-4-28,108,89,68,46,36,17,43,20,4,29.80,29.59,6,0,0,0.00
2013-4-29,107,89,68,50,41,30,45,23,7,29.66,29.49,1,0,0,0.00
2013-4-30,99,86,69,52,46,40,49,28,14,29.59,29.50,5,1,0,0.00
2013-5-1,98,81,64,53,33,1,66,30,4,29.94,29.59,9,1,0,0.00
2013-5-2,95,82,68,28,9,-8,20,8,2,30.15,29.93,10,3,0,0.00
2013-5-3,98,85,63,39,24,14,29,14,5,29.93,29.65,7,1,0,0.00
2013-5-4,98,85,64,47,31,20,39,17,6,29.66,29.47,10,2,0,0.00
2013-5-5,83,72,66,50,46,42,57,40,25,29.75,29.60,10,2,0,0.00
2013-5-6,79,71,62,52,47,40,62,43,34,29.87,29.75,15,3,0,0.00
2013-5-7,81,71,61,46,43,40,56,39,24,29.89,29.78,7,1,0,0.00
2013-5-8,85,72,58,50,47,42,68,43,22,29.93,29.82,5,1,0,0.00
2013-5-9,91,75,60,53,49,46,69,42,22,29.89,29.79,11,3,0,0.00
2013-5-10,99,82,65,55,49,39,68,37,14,29.93,29.78,5,0,0,0.00
2013-5-11,104,89,72,55,45,31,53,27,8,29.91,29.80,5,1,0,0.00
2013-5-12,107,91,75,48,44,39,39,22,10,29.93,29.75,7,1,0,0.00
2013-5-13,110,94,72,52,44,35,45,21,8,29.84,29.67,4,0,0,0.00
2013-5-14,107,92,72,53,37,4,48,19,3,29.75,29.64,12,2,0,0.00
2013-5-15,100,84,64,51,43,31,54,27,10,29.80,29.64,4,1,0,0.00
2013-5-16,98,77,66,56,33,-100,64,37,13,29.73,29.58,11,2,0,0.00
2013-5-17,91,77,69,54,44,-100,56,41,19,29.74,29.65,13,2,0,0.00
2013-5-18,96,80,65,54,51,46,64,39,19,29.82,29.69,7,1,0,0.00
2013-5-19,102,84,65,56,49,32,68,36,9,29.78,29.61,3,0,0,0.00
2013-5-20,101,87,69,56,42,28,59,26,8,29.84,29.69,6,1,0,0.00
2013-5-21,103,91,72,51,40,33,46,20,10,29.76,29.56,3,0,0,0.00
2013-5-22,100,87,69,50,38,2,45,22,3,29.59,29.48,20,3,0,0.00
2013-5-23,92,78,62,50,44,33,65,35,13,29.68,29.58,5,1,0,0.00
2013-5-24,94,79,61,53,45,29,71,36,10,29.78,29.67,5,1,0,0.00
2013-5-25,94,79,61,52,42,31,63,32,11,29.79,29.69,8,1,0,0.00
2013-5-26,93,78,63,53,47,34,66,37,13,29.82,29.69,6,0,0,0.00
2013-5-27,98,82,66,55,50,42,60,36,15,29.74,29.57,8,1,0,0.00
2013-5-28,93,80,67,56,54,52,63,42,26,29.59,29.48,9,1,0,0.00
2013-5-29,101,85,68,58,51,45,66,35,16,29.62,29.46,5,1,0,0.00
2013-5-30,98,86,71,61,55,51,62,38,21,29.69,29.55,6,1,0,0.00
2013-5-31,101,87,73,60,57,51,58,38,23,29.75,29.61,7,1,0,0.00
2013-6-1,111,94,76,60,48,28,57,28,6,29.68,29.52,6,0,0,0.00
2013-6-2,107,92,75,61,53,41,58,31,11,29.58,29.46,5,1,0,0.00
2013-6-3,104,88,69,57,50,42,63,32,13,29.64,29.50,6,1,0,0.00
2013-6-4,104,86,68,56,50,34,64,35,9,29.70,29.60,9,1,0,0.00
2013-6-5,107,89,69,59,50,41,65,32,11,29.74,29.61,3,0,0,0.00
2013-6-6,110,92,72,57,50,35,58,29,8,29.66,29.54,7,1,0,0.00
2013-6-7,110,93,73,60,52,44,59,29,12,29.62,29.49,8,1,0,0.00
2013-6-8,103,91,76,61,58,48,58,36,18,29.67,29.52,5,1,0,0.00
2013-6-9,101,89,76,63,55,32,54,35,12,29.72,29.61,6,1,0,0.00
2013-6-10,105,89,73,51,44,30,43,23,9,29.71,29.61,9,1,0,0.00
2013-6-11,107,91,69,56,44,30,59,26,7,29.74,29.62,9,0,0,0.00
2013-6-12,106,92,77,58,54,50,52,29,16,29.74,29.64,5,1,0,0.00
2013-6-13,109,90,71,58,48,32,59,29,8,29.77,29.60,6,0,0,0.00
2013-6-14,106,90,70,58,48,35,59,29,9,29.71,29.55,5,0,0,0.00
2013-6-15,105,87,68,56,45,26,63,30,7,29.70,29.61,6,0,0,0.00
2013-6-16,107,88,66,54,41,14,61,27,4,29.79,29.66,3,0,0,0.00
2013-6-17,108,90,71,56,47,27,57,28,6,29.75,29.61,9,0,0,0.00
2013-6-18,107,90,73,57,49,41,55,29,13,29.67,29.52,12,2,0,0.00
2013-6-19,104,89,71,52,45,32,48,25,9,29.62,29.52,6,1,0,0.00
2013-6-20,100,82,69,56,51,40,63,38,13,29.64,29.56,4,0,0,0.00
2013-6-22,106,95,81,54,48,39,39,22,11,29.68,29.53,7,1,0,0.00
2013-6-23,101,87,72,58,52,46,59,33,16,29.61,29.48,6,1,0,0.00
2013-6-24,96,83,70,57,54,48,57,39,22,29.68,29.55,7,1,0,0.00
2013-6-25,104,88,72,60,58,53,65,39,21,29.77,29.60,4,0,0,0.00
2013-6-26,104,93,78,64,62,59,62,37,23,29.79,29.67,7,1,0,0.00
2013-6-27,109,95,81,63,60,57,53,32,19,29.83,29.51,5,0,0,0.00
2013-6-28,118,97,81,63,57,50,52,30,11,29.71,29.33,1,0,0,0.00
2013-6-29,125,106,87,64,54,43,38,21,7,29.54,29.04,6,1,0,0.00
2013-6-30,110,98,85,67,63,58,52,34,22,29.46,28.70,6,1,0,0.00
2013-7-1,114,101,88,70,65,55,55,33,19,29.38,28.71,7,0,0,0.00
2013-7-2,110,99,89,72,63,56,46,32,21,29.27,28.46,9,1,0,0.00
2013-7-3,116,104,84,62,54,51,48,21,13,29.35,28.41,2,0,0,0.00
2013-7-4,110,100,85,70,60,51,49,28,19,29.52,28.07,6,1,0,0.00
2013-7-5,103,94,83,72,63,54,67,37,23,29.57,28.85,6,1,0,0.00
2013-7-6,108,93,81,62,59,55,51,33,19,29.53,28.79,6,0,0,0.00
2013-7-7,115,99,83,63,54,42,50,26,10,29.55,28.66,7,1,0,0.00
2013-7-8,116,100,79,58,49,42,46,21,9,29.52,28.84,3,0,0,0.00
2013-7-9,105,96,87,76,70,51,67,45,26,29.78,28.63,7,1,0,0.00
2013-7-10,95,88,84,77,68,-100,75,57,34,29.76,29.35,5,1,0,0.00
2013-7-11,95,88,83,70,64,56,61,45,36,29.75,29.47,4,0,0,0.00
2013-7-12,107,92,81,67,63,59,63,41,23,29.68,29.16,6,0,0,0.00
2013-7-13,112,97,81,62,59,54,51,31,17,29.74,28.95,6,1,0,0.00
2013-7-14,112,99,84,62,59,55,48,28,17,29.67,29.43,4,0,0,0.00
2013-7-15,112,97,84,59,54,45,41,25,13,29.57,28.42,16,1,0,0.00
2013-7-16,109,98,80,53,42,33,39,17,8,29.65,28.42,6,1,0,0.00
2013-7-17,107,95,80,53,42,32,37,19,8,29.84,28.19,1,0,0,0.00
2013-7-18,114,105,89,53,40,31,29,13,6,29.74,28.60,1,0,0,0.00
2013-7-19,103,93,82,75,68,54,62,45,29,29.23,26.61,6,1,0,0.00
2013-7-20,99,89,84,75,70,-100,75,58,43,28.24,26.95,5,1,0,0.00
2013-7-21,92,86,81,77,72,66,76,64,52,27.99,26.34,9,2,0,0.02
2013-7-22,100,89,80,71,68,64,68,51,35,29.74,26.95,10,1,0,0.00
2013-7-23,108,93,81,67,64,60,60,41,24,29.76,27.38,7,1,0,0.00
2013-7-24,111,97,82,66,62,57,55,34,20,29.69,27.61,4,1,0,0.00
2013-7-25,103,94,82,71,65,59,56,39,31,28.66,27.20,4,1,0,0.00
2013-7-26,100,92,85,68,64,59,55,41,34,29.89,27.08,8,1,0,0.01
2013-7-27,111,98,83,66,63,57,55,33,22,28.54,27.66,5,1,0,0.00
2013-7-28,109,97,86,60,50,40,39,23,11,28.58,27.32,11,2,0,0.00
2013-7-29,108,96,75,56,46,39,45,20,11,29.68,27.62,4,1,0,0.00
2013-7-30,107,92,78,59,57,54,47,32,21,29.86,27.98,5,1,0,0.00
2013-7-31,108,93,78,61,56,47,47,31,14,29.79,28.56,6,2,0,0.00
2013-8-1,109,92,74,56,47,35,53,26,9,29.17,28.38,9,2,0,0.00
2013-8-2,107,89,72,58,52,42,60,32,13,29.06,28.25,6,0,0,0.00
2013-8-3,107,91,72,59,50,33,64,29,8,28.56,28.06,4,0,0,0.00
2013-8-4,110,93,74,60,51,35,61,30,8,28.27,27.74,3,0,0,0.00
2013-8-5,107,95,81,56,50,41,42,23,11,28.02,27.30,7,1,0,0.00
2013-8-6,106,93,74,56,49,40,49,24,11,27.67,27.07,3,1,0,0.00
2013-8-7,108,96,72,54,39,33,54,16,8,29.76,27.13,3,0,0,0.00
2013-8-8,107,97,72,52,39,32,49,16,8,29.69,27.52,7,2,0,0.00
2013-8-9,106,92,72,49,40,31,45,19,8,29.71,24.93,7,1,0,0.00
2013-8-10,105,88,69,52,45,32,53,26,9,26.52,22.24,4,0,0,0.00
2013-8-11,105,89,71,57,50,41,61,31,12,27.36,22.23,4,0,0,0.00
2013-8-12,111,91,73,57,51,38,57,30,9,25.78,20.57,4,0,0,0.00
2013-8-13,106,89,76,61,52,-100,57,33,13,22.41,19.84,6,1,0,0.00
2013-8-14,111,94,78,61,54,39,45,29,9,29.73,17.52,6,1,0,0.00
2013-8-15,110,86,81,65,39,-100,44,24,17,29.78,18.10,4,0,0,0.00
2013-8-16,114,94,81,59,50,-100,43,26,17,29.71,27.31,1,0,0,0.00
2013-8-17,111,99,82,62,58,56,49,28,18,27.95,24.43,4,0,0,0.00
2013-8-18,110,98,84,63,60,56,47,29,22,27.77,26.56,8,0,0,0.00
2013-8-19,108,88,85,63,47,-100,47,30,21,27.54,24.46,4,0,0,0.00
2013-8-20,111,95,83,61,54,-100,43,28,16,27.54,27.27,7,0,0,0.00
2013-8-21,111,98,80,59,54,49,45,26,14,0.00,40.00,1,0,0,0.00
2013-8-22,107,99,86,69,63,52,44,32,22,32.40,16.92,9,1,0,0.00
2013-8-23,103,94,85,68,65,56,49,38,30,31.95,27.31,6,0,0,0.00
2013-8-24,99,88,80,76,67,55,71,50,39,32.40,25.34,6,1,0,0.06
2013-8-25,95,80,73,73,70,67,90,74,49,32.40,23.78,13,1,0,0.06
2013-8-26,86,80,76,75,73,70,90,80,62,32.36,19.23,5,0,0,0.31
2013-8-27,98,84,76,73,71,69,85,67,39,29.74,19.23,4,1,0,0.00
2013-8-28,109,102,94,68,65,63,41,31,25,32.22,21.88,9,2,0,0.00
2013-8-29,97,90,85,75,74,72,71,59,47,32.22,16.71,9,1,0,0.00
2013-8-30,97,89,83,77,74,72,79,63,46,32.44,16.71,5,0,0,0.00
2013-8-31,105,93,83,75,72,67,75,53,33,32.48,24.18,6,1,0,0.00
2013-9-1,107,94,84,71,68,65,64,45,28,31.52,17.80,3,0,0,0.00
2013-9-2,108,94,81,70,65,61,69,41,23,31.91,17.80,7,0,0,0.00
2013-9-3,106,95,84,67,64,58,56,38,24,29.75,16.02,10,1,0,0.00
2013-9-4,106,93,85,71,66,62,52,42,24,29.79,16.92,13,2,0,0.00
2013-9-5,111,95,82,69,63,60,58,37,21,29.74,20.50,4,0,0,0.00
2013-9-6,109,94,83,66,62,58,56,37,20,29.70,20.50,16,1,0,0.00
2013-9-7,98,89,82,71,68,61,67,52,34,28.58,17.49,4,0,0,0.00
2013-9-8,103,90,79,70,66,56,75,50,28,32.11,16.22,4,0,0,0.00
2013-9-9,102,91,80,65,59,53,58,37,24,32.28,21.66,5,1,0,0.00
2013-9-10,99,88,79,71,62,48,74,46,24,32.25,28.19,10,2,0,0.00
2013-9-11,100,89,73,58,54,49,60,32,22,31.43,27.86,4,0,0,0.00
2013-9-12,106,90,74,59,52,44,56,32,13,31.27,27.39,2,0,0,0.00
2013-9-13,109,98,77,56,47,39,39,20,10,30.25,27.30,1,0,0,0.00
2013-9-14,111,95,79,55,52,44,43,26,11,30.32,17.27,4,0,0,0.00
2013-9-15,110,97,80,56,52,46,43,25,14,29.46,19.61,5,1,0,0.00
2013-9-16,111,97,81,56,51,46,43,24,12,29.84,27.12,4,1,0,0.00
2013-9-17,107,96,78,54,43,33,41,18,8,29.57,27.12,7,1,0,0.00
2013-9-18,87,84,81,54,53,52,39,35,30,29.45,19.26,0,0,0,0.00
2013-9-19,106,87,69,59,49,33,58,32,8,29.62,25.51,1,0,0,0.00
2013-9-20,103,86,73,59,54,46,61,38,15,29.64,20.21,6,1,0,0.00
2013-9-21,97,83,66,58,52,40,72,39,14,29.62,27.87,9,1,0,0.00
2013-9-22,91,78,68,53,48,40,55,38,17,29.62,28.96,7,1,0,0.00
2013-9-23,100,85,65,53,43,34,63,29,11,32.41,21.74,4,0,0,0.00
2013-9-24,99,86,68,47,44,41,45,25,15,31.55,19.59,6,1,0,0.00
2013-9-25,96,81,67,47,41,30,47,27,10,32.23,21.73,11,2,0,0.00
2013-9-26,84,73,63,49,44,38,60,39,20,31.75,21.73,10,1,0,0.00
2013-9-27,89,75,60,46,34,24,51,28,10,31.75,28.41,9,1,0,0.00
2013-9-28,94,80,61,38,31,16,38,19,6,29.91,18.89,4,0,0,0.00
2013-9-29,96,81,64,43,34,30,37,21,10,29.91,16.04,2,0,0,0.00
2013-9-30,98,82,64,46,40,34,46,25,12,29.80,21.91,2,0,0,0.00
2013-10-1,90,80,73,51,47,44,46,32,21,27.00,26.52,3,0,0,0.00
2013-10-2,93,79,63,62,53,48,68,43,24,29.78,24.89,5,0,0,0.00
2013-10-3,90,76,62,56,51,44,72,46,21,29.68,27.49,5,1,0,0.00
2013-10-4,87,78,69,55,22,13,57,15,7,29.96,18.70,11,3,0,0.00
2013-10-5,90,78,68,27,23,16,21,14,7,29.46,19.77,5,1,0,0.00
2013-10-6,96,86,66,35,25,21,29,13,7,29.23,25.05,3,1,0,0.00
2013-10-7,94,83,63,38,30,23,34,16,8,29.86,16.43,0,0,0,0.00
2013-10-8,92,81,65,50,38,31,51,24,12,29.69,16.68,7,1,0,0.00
2013-10-9,74,66,57,49,44,40,69,47,30,29.60,26.37,14,3,0,0.00
2013-10-10,77,63,50,47,43,39,77,52,26,29.84,26.27,5,0,0,0.00
2013-10-11,83,69,55,48,46,41,71,47,23,29.90,18.55,6,1,0,0.00
2013-10-12,88,72,58,47,44,38,62,40,18,29.80,19.11,3,0,0,0.00
2013-10-13,85,71,56,51,47,39,79,47,20,29.72,19.11,4,0,0,0.00
2013-10-14,88,76,58,49,39,30,66,32,13,29.89,27.70,4,0,0,0.00
2013-10-15,90,78,56,42,34,30,55,22,12,29.86,27.43,3,0,0,0.00
2013-10-16,89,78,56,41,28,16,52,20,7,29.92,27.98,4,0,0,0.00
2013-10-17,88,74,54,45,35,29,51,26,12,29.79,17.12,4,0,0,0.00
2013-10-18,96,75,58,44,35,24,52,29,8,29.87,27.72,0,0,0,0.00
2013-10-19,96,84,58,44,32,22,38,18,7,29.82,18.08,2,0,0,0.00
2013-10-20,96,81,58,45,34,22,45,24,7,29.78,18.62,4,0,0,0.00
2013-10-21,89,78,62,45,40,34,46,27,15,29.80,27.88,5,1,0,0.00
2013-10-25,90,86,78,48,45,43,33,24,20,29.89,27.57,2,0,0,0.00
2013-10-26,97,90,77,48,39,31,36,18,11,29.17,26.63,0,0,0,0.00
2013-10-27,93,85,68,44,37,31,37,19,11,32.20,27.28,9,3,0,0.00
2013-10-28,75,68,61,49,41,-100,54,40,30,29.62,17.42,21,7,0,0.00
2013-10-29,74,65,58,44,42,39,60,45,28,29.80,26.21,3,0,0,0.00
2013-10-30,80,64,52,46,41,32,75,49,18,29.93,24.64,2,0,0,0.00
2013-10-31,85,72,53,43,36,27,60,32,12,30.01,28.04,2,0,0,0.00
2013-11-1,88,84,75,39,36,34,27,19,15,29.99,28.70,4,1,0,0.00
2013-11-2,86,79,69,42,38,34,37,24,16,29.87,28.42,4,0,0,0.00
2013-11-3,85,73,52,49,42,33,69,37,16,29.71,28.25,4,0,0,0.00
2013-11-4,78,64,53,52,46,38,84,57,29,29.66,28.26,5,1,0,0.00
2013-11-9,83,76,64,40,32,28,36,21,14,29.94,28.21,3,1,0,0.00
2013-11-10,85,83,79,33,30,27,17,15,12,29.93,28.48,0,0,0,0.00
2013-11-11,94,87,61,47,39,35,37,20,15,29.97,28.07,0,0,0,0.00
2013-11-12,89,82,64,40,39,38,41,23,17,30.01,29.95,0,0,0,0.00
2013-11-13,92,87,73,45,38,35,37,19,14,29.87,28.05,3,0,0,0.00
2013-11-14,89,82,74,40,38,35,29,21,15,29.77,29.21,5,2,0,0.00
2013-11-15,79,67,57,49,46,41,71,47,32,29.56,28.05,6,1,0,0.00
2013-11-16,74,60,51,51,48,46,84,67,39,29.66,28.56,7,1,0,0.00
2013-11-18,79,70,56,50,48,46,70,48,33,30.00,28.74,0,0,0,0.00
2013-11-19,74,65,52,51,49,48,86,60,40,29.86,28.99,3,0,0,0.00
2013-11-20,76,64,55,52,50,48,83,63,39,29.77,29.66,4,0,0,0.00
2013-11-21,68,63,55,56,52,49,85,70,60,29.77,29.66,4,1,0,0.00
2013-11-22,62,58,54,50,45,40,75,61,44,29.89,29.73,9,2,0,0.02
2013-11-23,69,60,53,44,42,40,71,53,35,30.01,29.88,6,1,0,0.03
2013-11-24,71,59,47,44,41,37,82,55,30,30.10,30.00,4,1,0,0.00
2013-11-25,79,59,46,46,42,36,81,59,21,30.14,30.02,4,0,0,0.00
2013-11-26,73,60,45,46,43,40,85,57,32,30.17,30.02,2,0,0,0.00
2013-11-27,74,58,50,46,42,36,79,59,26,30.03,29.85,1,0,0,0.00
2013-11-28,73,58,45,43,39,34,77,54,24,29.98,29.87,2,0,0,0.00
2013-11-29,73,60,49,49,43,38,74,55,30,30.08,29.98,4,0,0,0.00
2013-11-30,81,62,50,48,45,40,79,56,23,30.11,29.97,3,0,0,0.00
2013-12-1,84,63,50,44,37,28,71,44,13,30.14,30.01,2,0,0,0.00
2013-12-2,76,62,45,43,36,31,67,41,19,30.03,28.78,0,0,0,0.00
2013-12-3,75,61,46,48,43,38,81,55,27,29.73,29.19,5,0,0,0.00
2013-12-4,67,60,49,48,31,18,63,33,23,29.88,29.53,14,4,0,0.00
2013-12-5,60,50,40,33,27,21,65,44,24,30.04,29.87,3,0,0,0.00
2013-12-6,60,48,36,35,32,31,82,58,33,30.13,29.99,3,0,0,0.00
2013-12-7,61,48,37,41,35,31,83,62,40,30.01,29.80,9,1,0,0.00
2013-12-8,60,51,41,34,29,16,72,45,28,30.15,29.93,5,1,0,0.00
2013-12-9,58,48,40,16,9,1,34,21,10,30.37,30.15,6,1,0,0.00
2013-12-10,64,56,32,23,12,6,55,20,10,30.30,30.07,0,0,0,0.00
2013-12-11,67,60,38,30,20,15,51,23,14,30.12,30.05,2,0,0,0.00
2013-12-12,71,59,47,42,37,29,74,46,26,30.10,29.92,10,1,0,0.00
2013-12-13,69,52,39,42,39,35,85,63,35,30.16,29.80,5,0,0,0.00
2013-12-14,76,62,46,34,27,21,59,31,13,30.29,30.14,11,2,0,0.00
2013-12-15,76,63,42,38,31,24,62,34,15,30.26,30.10,3,0,0,0.00
2013-12-16,77,64,46,43,38,33,68,42,21,30.12,29.65,0,0,0,0.00
2013-12-17,79,65,46,42,38,33,72,42,19,30.10,29.60,1,0,0,0.00
2013-12-18,78,64,51,40,38,31,66,42,18,29.88,29.64,1,0,0,0.00
2013-12-19,69,58,48,44,41,38,73,54,35,29.64,29.52,10,1,0,0.00
2013-12-20,71,58,48,42,38,34,69,49,26,29.79,29.62,10,1,0,0.00
2013-12-21,72,53,42,41,37,34,80,60,25,29.98,29.75,3,0,0,0.00
2013-12-22,69,54,43,46,42,38,83,66,40,30.22,29.98,4,0,0,0.00
2013-12-23,79,58,43,44,39,33,84,56,20,30.29,30.17,3,0,0,0.00
2013-12-24,82,60,43,43,39,36,77,52,20,30.18,30.04,0,0,0,0.00
2013-12-26,81,70,53,25,18,7,29,15,6,30.12,30.06,0,0,0,0.00
2013-12-27,76,69,51,36,27,19,46,23,12,30.11,30.00,4,1,0,0.00
2013-12-28,73,62,46,35,31,26,59,34,17,29.97,29.84,1,0,0,0.00
2013-12-29,74,66,44,32,18,11,62,17,9,30.09,29.92,12,3,0,0.00
2013-12-30,74,69,51,29,20,13,37,17,10,30.20,30.09,1,0,0,0.00
2013-12-31,76,66,40,29,21,16,51,20,11,30.15,30.01,0,0,0,0.00
2014-1-1,77,67,50,34,27,21,53,25,13,30.10,30.00,0,0,0,0.00
2014-1-2,77,59,42,39,34,32,68,45,19,30.08,29.95,3,0,0,0.00